Find UGATUSAT

NORAD ID: 35869 Int'l Des: 2009-049 Owner: UGATU Country: RU operational
LEOCIRCULARRETROGRADESSO

Current View

Loading 3D Globe...

About UGATUSAT

Description loading...

Upcoming Passes

Passes for default location (London). Set your location on the main map for personalized predictions.

Altitude History

Loading altitude history...

Two-Line Element Set

1 35869U 09049E 26151.49744741 .00000095 00000-0 61758-4 0 9993
2 35869 98.7387 113.4655 0004470 6.2782 353.8452 14.23210745867055
Epoch: May 31, 2026 • Age: 8 hours

Current Status

Altitude 819.7 km
Velocity 7.44 km/s
Sub-Earth Point 12.63°N, 114.37°E
Launch Date Sep 17, 2009
Age 16.7 years
Type other

Technical Details

Classification Payload
Mass 35.00 kg
Dry Mass 35.00 kg
Total Mass 35.00 kg
Length 0.80 m
Diameter 0.50 m
Span 0.80 m
Shape Tri Cyl + Pan
Manufacturer UGATU
Phase Status In Orbit
Owner/State UGATU/RU

Most Searched